Year,Month,Day,Hour,Minute,Value (Times are PST for temperature in C)
2015,06,15,00,00,16.90
2015,06,15,00,01,16.90
2015,06,15,00,02,16.80
2015,06,15,00,03,16.80
2015,06,15,00,04,16.70
2015,06,15,00,05,16.70
2015,06,15,00,06,16.70
2015,06,15,00,07,16.70
2015,06,15,00,08,16.60
2015,06,15,00,09,16.60
2015,06,15,00,10,16.60
2015,06,15,00,11,16.60
2015,06,15,00,12,16.60
2015,06,15,00,13,16.60
2015,06,15,00,14,16.60
2015,06,15,00,15,16.60
2015,06,15,00,16,16.60
2015,06,15,00,17,16.60
2015,06,15,00,18,16.60
2015,06,15,00,19,16.60
2015,06,15,00,20,16.60
2015,06,15,00,21,16.60
2015,06,15,00,22,16.60
2015,06,15,00,23,16.60
2015,06,15,00,24,16.60
2015,06,15,00,25,16.70
2015,06,15,00,26,16.70
2015,06,15,00,27,16.70
2015,06,15,00,28,16.70
2015,06,15,00,29,16.70
2015,06,15,00,30,16.70
2015,06,15,00,31,16.70
2015,06,15,00,32,16.70
2015,06,15,00,33,16.70
2015,06,15,00,34,16.70
2015,06,15,00,35,16.70
2015,06,15,00,36,16.70
2015,06,15,00,37,16.70
2015,06,15,00,38,16.70
2015,06,15,00,39,16.70
2015,06,15,00,40,16.70
2015,06,15,00,41,16.70
2015,06,15,00,42,16.70
2015,06,15,00,43,16.70
2015,06,15,00,44,16.70
2015,06,15,00,45,16.70
2015,06,15,00,46,16.70
2015,06,15,00,47,16.70
2015,06,15,00,48,16.70
2015,06,15,00,49,16.70
2015,06,15,00,50,16.70
2015,06,15,00,51,16.70
2015,06,15,00,52,16.70
2015,06,15,00,53,16.70
2015,06,15,00,54,16.70
2015,06,15,00,55,16.70
2015,06,15,00,56,16.60
2015,06,15,00,57,16.60
2015,06,15,00,58,16.50
2015,06,15,00,59,16.50
2015,06,15,01,00,16.40
2015,06,15,01,01,16.40
2015,06,15,01,02,16.40
2015,06,15,01,03,16.40
2015,06,15,01,04,16.30
2015,06,15,01,05,16.30
2015,06,15,01,06,16.20
2015,06,15,01,07,16.20
2015,06,15,01,08,16.20
2015,06,15,01,09,16.10
2015,06,15,01,10,16.10
2015,06,15,01,11,16.10
2015,06,15,01,12,16.20
2015,06,15,01,13,16.20
2015,06,15,01,14,16.20
2015,06,15,01,15,16.20
2015,06,15,01,16,16.20
2015,06,15,01,17,16.20
2015,06,15,01,18,16.20
2015,06,15,01,19,16.20
2015,06,15,01,20,16.20
2015,06,15,01,21,16.10
2015,06,15,01,22,16.10
2015,06,15,01,23,16.10
2015,06,15,01,24,16.10
2015,06,15,01,25,16.10
2015,06,15,01,26,16.10
2015,06,15,01,27,16.10
2015,06,15,01,28,16.10
2015,06,15,01,29,16.10
2015,06,15,01,30,16.00
2015,06,15,01,31,16.00
2015,06,15,01,32,16.00
2015,06,15,01,33,15.90
2015,06,15,01,34,15.90
2015,06,15,01,35,15.80
2015,06,15,01,36,15.70
2015,06,15,01,37,15.70
2015,06,15,01,38,15.60
2015,06,15,01,39,15.60
2015,06,15,01,40,15.60
2015,06,15,01,41,15.60
2015,06,15,01,42,15.60
2015,06,15,01,43,15.60
2015,06,15,01,44,15.50
2015,06,15,01,45,15.50
2015,06,15,01,46,15.50
2015,06,15,01,47,15.40
2015,06,15,01,48,15.40
2015,06,15,01,49,15.40
2015,06,15,01,50,15.30
2015,06,15,01,51,15.20
2015,06,15,01,52,15.20
2015,06,15,01,53,15.10
2015,06,15,01,54,15.00
2015,06,15,01,55,15.00
2015,06,15,01,56,14.90
2015,06,15,01,57,14.90
2015,06,15,01,58,14.90
2015,06,15,01,59,14.80
2015,06,15,02,00,14.80
2015,06,15,02,01,14.70
2015,06,15,02,02,14.60
2015,06,15,02,03,14.50
2015,06,15,02,04,14.30
2015,06,15,02,05,14.20
2015,06,15,02,06,14.00
2015,06,15,02,07,13.90
2015,06,15,02,08,13.90
2015,06,15,02,09,13.80
2015,06,15,02,10,13.90
2015,06,15,02,11,13.90
2015,06,15,02,12,14.00
2015,06,15,02,13,14.00
2015,06,15,02,14,14.10
2015,06,15,02,15,14.20
2015,06,15,02,16,14.30
2015,06,15,02,17,14.30
2015,06,15,02,18,14.40
2015,06,15,02,19,14.40
2015,06,15,02,20,14.40
2015,06,15,02,21,14.40
2015,06,15,02,22,14.40
2015,06,15,02,23,14.40
2015,06,15,02,24,14.40
2015,06,15,02,25,14.40
2015,06,15,02,26,14.40
2015,06,15,02,27,14.40
2015,06,15,02,28,14.40
2015,06,15,02,29,14.40
2015,06,15,02,30,14.50
2015,06,15,02,31,14.50
2015,06,15,02,32,14.60
2015,06,15,02,33,14.60
2015,06,15,02,34,14.60
2015,06,15,02,35,14.70
2015,06,15,02,36,14.70
2015,06,15,02,37,14.70
2015,06,15,02,38,14.70
2015,06,15,02,39,14.70
2015,06,15,02,40,14.60
2015,06,15,02,41,14.60
2015,06,15,02,42,14.60
2015,06,15,02,43,14.60
2015,06,15,02,44,14.60
2015,06,15,02,45,14.70
2015,06,15,02,46,14.70
2015,06,15,02,47,14.70
2015,06,15,02,48,14.70
2015,06,15,02,49,14.70
2015,06,15,02,50,14.70
2015,06,15,02,51,14.70
2015,06,15,02,52,14.80
2015,06,15,02,53,14.80
2015,06,15,02,54,14.80
2015,06,15,02,55,14.80
2015,06,15,02,56,14.80
2015,06,15,02,57,14.80
2015,06,15,02,58,14.80
2015,06,15,02,59,14.80
2015,06,15,03,00,14.80
2015,06,15,03,01,14.80
2015,06,15,03,02,14.80
2015,06,15,03,03,14.90
2015,06,15,03,04,14.90
2015,06,15,03,05,14.90
2015,06,15,03,06,14.90
2015,06,15,03,07,14.90
2015,06,15,03,08,14.90
2015,06,15,03,09,14.90
2015,06,15,03,10,14.90
2015,06,15,03,11,14.90
2015,06,15,03,12,14.90
2015,06,15,03,13,14.80
2015,06,15,03,14,14.80
2015,06,15,03,15,14.80
2015,06,15,03,16,14.80
2015,06,15,03,17,14.80
2015,06,15,03,18,14.80
2015,06,15,03,19,14.80
2015,06,15,03,20,14.80
2015,06,15,03,21,14.80
2015,06,15,03,22,14.80
2015,06,15,03,23,14.80
2015,06,15,03,24,14.80
2015,06,15,03,25,14.80
2015,06,15,03,26,14.80
2015,06,15,03,27,14.80
2015,06,15,03,28,14.80
2015,06,15,03,29,14.80
2015,06,15,03,30,14.80
2015,06,15,03,31,14.80
2015,06,15,03,32,14.70
2015,06,15,03,33,14.70
2015,06,15,03,34,14.70
2015,06,15,03,35,14.70
2015,06,15,03,36,14.60
2015,06,15,03,37,14.60
2015,06,15,03,38,14.60
2015,06,15,03,39,14.60
2015,06,15,03,40,14.60
2015,06,15,03,41,14.60
2015,06,15,03,42,14.60
2015,06,15,03,43,14.60
2015,06,15,03,44,14.50
2015,06,15,03,45,14.50
2015,06,15,03,46,14.50
2015,06,15,03,47,14.40
2015,06,15,03,48,14.50
2015,06,15,03,49,14.50
2015,06,15,03,50,14.50
2015,06,15,03,51,14.50
2015,06,15,03,52,14.60
2015,06,15,03,53,14.60
2015,06,15,03,54,14.60
2015,06,15,03,55,14.60
2015,06,15,03,56,14.60
2015,06,15,03,57,14.50
2015,06,15,03,58,14.40
2015,06,15,03,59,14.30
2015,06,15,04,00,14.20
2015,06,15,04,01,14.10
2015,06,15,04,02,14.00
2015,06,15,04,03,14.00
2015,06,15,04,04,13.90
2015,06,15,04,05,13.80
2015,06,15,04,06,13.80
2015,06,15,04,07,13.80
2015,06,15,04,08,13.70
2015,06,15,04,09,13.70
2015,06,15,04,10,13.60
2015,06,15,04,11,13.60
2015,06,15,04,12,13.60
2015,06,15,04,13,13.50
2015,06,15,04,14,13.40
2015,06,15,04,15,13.40
2015,06,15,04,16,13.30
2015,06,15,04,17,13.40
2015,06,15,04,18,13.50
2015,06,15,04,19,13.60
2015,06,15,04,20,13.70
2015,06,15,04,21,13.80
2015,06,15,04,22,13.90
2015,06,15,04,23,13.90
2015,06,15,04,24,13.90
2015,06,15,04,25,13.90
2015,06,15,04,26,13.90
2015,06,15,04,27,13.80
2015,06,15,04,28,13.80
2015,06,15,04,29,13.80
2015,06,15,04,30,13.70
2015,06,15,04,31,13.60
2015,06,15,04,32,13.50
2015,06,15,04,33,13.50
2015,06,15,04,34,13.40
2015,06,15,04,35,13.40
2015,06,15,04,36,13.30
2015,06,15,04,37,13.30
2015,06,15,04,38,13.30
2015,06,15,04,39,13.20
2015,06,15,04,40,13.20
2015,06,15,04,41,13.20
2015,06,15,04,42,13.10
2015,06,15,04,43,13.10
2015,06,15,04,44,13.00
2015,06,15,04,45,13.00
2015,06,15,04,46,12.90
2015,06,15,04,47,12.90
2015,06,15,04,48,12.80
2015,06,15,04,49,12.80
2015,06,15,04,50,12.70
2015,06,15,04,51,12.70
2015,06,15,04,52,12.70
2015,06,15,04,53,12.60
2015,06,15,04,54,12.60
2015,06,15,04,55,12.50
2015,06,15,04,56,12.50
2015,06,15,04,57,12.50
2015,06,15,04,58,12.40
2015,06,15,04,59,12.40
2015,06,15,05,00,12.40
2015,06,15,05,01,12.40
2015,06,15,05,02,12.40
2015,06,15,05,03,12.40
2015,06,15,05,04,12.30
2015,06,15,05,05,12.30
2015,06,15,05,06,12.30
2015,06,15,05,07,12.30
2015,06,15,05,08,12.20
2015,06,15,05,09,12.20
2015,06,15,05,10,12.20
2015,06,15,05,11,12.20
2015,06,15,05,12,12.20
2015,06,15,05,13,12.10
2015,06,15,05,14,12.10
2015,06,15,05,15,12.10
2015,06,15,05,16,12.10
2015,06,15,05,17,12.10
2015,06,15,05,18,12.10
2015,06,15,05,19,12.10
2015,06,15,05,20,12.10
2015,06,15,05,21,12.00
2015,06,15,05,22,12.00
2015,06,15,05,23,12.00
2015,06,15,05,24,12.00
2015,06,15,05,25,11.90
2015,06,15,05,26,11.90
2015,06,15,05,27,11.90
2015,06,15,05,28,11.90
2015,06,15,05,29,11.90
2015,06,15,05,30,11.90
2015,06,15,05,31,11.90
2015,06,15,05,32,11.90
2015,06,15,05,33,11.90
2015,06,15,05,34,11.90
2015,06,15,05,35,11.90
2015,06,15,05,36,11.90
2015,06,15,05,37,11.90
2015,06,15,05,38,11.90
2015,06,15,05,39,11.90
2015,06,15,05,40,11.90
2015,06,15,05,41,11.90
2015,06,15,05,42,11.90
2015,06,15,05,43,11.90
2015,06,15,05,44,11.90
2015,06,15,05,45,11.90
2015,06,15,05,46,11.90
2015,06,15,05,47,11.90
2015,06,15,05,48,11.90
2015,06,15,05,49,11.80
2015,06,15,05,50,11.80
2015,06,15,05,51,11.80
2015,06,15,05,52,11.80
2015,06,15,05,53,11.80
2015,06,15,05,54,11.90
2015,06,15,05,55,11.90
2015,06,15,05,56,11.90
2015,06,15,05,57,11.90
2015,06,15,05,58,11.90
2015,06,15,05,59,11.90
2015,06,15,06,00,11.90
2015,06,15,06,01,11.90
2015,06,15,06,02,12.00
2015,06,15,06,03,12.00
2015,06,15,06,04,12.00
2015,06,15,06,05,12.00
2015,06,15,06,06,12.10
2015,06,15,06,07,12.10
2015,06,15,06,08,12.10
2015,06,15,06,09,12.20
2015,06,15,06,10,12.20
2015,06,15,06,11,12.20
2015,06,15,06,12,12.30
2015,06,15,06,13,12.30
2015,06,15,06,14,12.40
2015,06,15,06,15,12.40
2015,06,15,06,16,12.50
2015,06,15,06,17,12.60
2015,06,15,06,18,12.60
2015,06,15,06,19,12.70
2015,06,15,06,20,12.70
2015,06,15,06,21,12.80
2015,06,15,06,22,12.80
2015,06,15,06,23,12.90
2015,06,15,06,24,13.00
2015,06,15,06,25,13.00
2015,06,15,06,26,13.10
2015,06,15,06,27,13.10
2015,06,15,06,28,13.20
2015,06,15,06,29,13.30
2015,06,15,06,30,13.30
2015,06,15,06,31,13.40
2015,06,15,06,32,13.60
2015,06,15,06,33,13.60
2015,06,15,06,34,13.80
2015,06,15,06,35,13.90
2015,06,15,06,36,14.00
2015,06,15,06,37,14.20
2015,06,15,06,38,14.30
2015,06,15,06,39,14.50
2015,06,15,06,40,14.60
2015,06,15,06,41,14.80
2015,06,15,06,42,15.00
2015,06,15,06,43,15.10
2015,06,15,06,44,15.20
2015,06,15,06,45,15.30
2015,06,15,06,46,15.40
2015,06,15,06,47,15.40
2015,06,15,06,48,15.50
2015,06,15,06,49,15.50
2015,06,15,06,50,15.60
2015,06,15,06,51,15.60
2015,06,15,06,52,15.70
2015,06,15,06,53,15.70
2015,06,15,06,54,15.70
2015,06,15,06,55,15.80
2015,06,15,06,56,15.80
2015,06,15,06,57,15.80
2015,06,15,06,58,15.80
2015,06,15,06,59,15.90
2015,06,15,07,00,15.90
2015,06,15,07,01,15.90
2015,06,15,07,02,15.90
2015,06,15,07,03,15.90
2015,06,15,07,04,15.90
2015,06,15,07,05,16.00
2015,06,15,07,06,16.00
2015,06,15,07,07,16.10
2015,06,15,07,08,16.10
2015,06,15,07,09,16.10
2015,06,15,07,10,16.10
2015,06,15,07,11,16.10
2015,06,15,07,12,16.20
2015,06,15,07,13,16.20
2015,06,15,07,14,16.20
2015,06,15,07,15,16.20
2015,06,15,07,16,16.20
2015,06,15,07,17,16.20
2015,06,15,07,18,16.20
2015,06,15,07,19,16.20
2015,06,15,07,20,16.30
2015,06,15,07,21,16.30
2015,06,15,07,22,16.30
2015,06,15,07,23,16.30
2015,06,15,07,24,16.40
2015,06,15,07,25,16.40
2015,06,15,07,26,16.40
2015,06,15,07,27,16.40
2015,06,15,07,28,16.40
2015,06,15,07,29,16.40
2015,06,15,07,30,16.40
2015,06,15,07,31,16.40
2015,06,15,07,32,16.40
2015,06,15,07,33,16.40
2015,06,15,07,34,16.40
2015,06,15,07,35,16.40
2015,06,15,07,36,16.40
2015,06,15,07,37,16.50
2015,06,15,07,38,16.50
2015,06,15,07,39,16.50
2015,06,15,07,40,16.60
2015,06,15,07,41,16.50
2015,06,15,07,42,16.50
2015,06,15,07,43,16.50
2015,06,15,07,44,16.50
2015,06,15,07,45,16.50
2015,06,15,07,46,16.50
2015,06,15,07,47,16.60
2015,06,15,07,48,16.60
2015,06,15,07,49,16.60
2015,06,15,07,50,16.60
2015,06,15,07,51,16.60
2015,06,15,07,52,16.70
2015,06,15,07,53,16.80
2015,06,15,07,54,16.80
2015,06,15,07,55,16.80
2015,06,15,07,56,16.80
2015,06,15,07,57,16.80
2015,06,15,07,58,16.80
2015,06,15,07,59,16.90
2015,06,15,08,00,16.90
2015,06,15,08,01,17.00
2015,06,15,08,02,17.00
2015,06,15,08,03,17.10
2015,06,15,08,04,17.10
2015,06,15,08,05,17.10
2015,06,15,08,06,17.20
2015,06,15,08,07,17.20
2015,06,15,08,08,17.20
2015,06,15,08,09,17.20
2015,06,15,08,10,17.30
2015,06,15,08,11,17.30
2015,06,15,08,12,17.40
2015,06,15,08,13,17.40
2015,06,15,08,14,17.40
2015,06,15,08,15,17.40
2015,06,15,08,16,17.50
2015,06,15,08,17,17.50
2015,06,15,08,18,17.50
2015,06,15,08,19,17.60
2015,06,15,08,20,17.60
2015,06,15,08,21,17.70
2015,06,15,08,22,17.80
2015,06,15,08,23,17.80
2015,06,15,08,24,17.90
2015,06,15,08,25,17.90
2015,06,15,08,26,18.00
2015,06,15,08,27,18.00
2015,06,15,08,28,18.10
2015,06,15,08,29,18.10
2015,06,15,08,30,18.20
2015,06,15,08,31,18.20
2015,06,15,08,32,18.20
2015,06,15,08,33,18.20
2015,06,15,08,34,18.20
2015,06,15,08,35,18.20
2015,06,15,08,36,18.20
2015,06,15,08,37,18.20
2015,06,15,08,38,18.30
2015,06,15,08,39,18.30
2015,06,15,08,40,18.30
2015,06,15,08,41,18.30
2015,06,15,08,42,18.20
2015,06,15,08,43,18.20
2015,06,15,08,44,18.30
2015,06,15,08,45,18.20
2015,06,15,08,46,18.20
2015,06,15,08,47,18.20
2015,06,15,08,48,18.10
2015,06,15,08,49,18.10
2015,06,15,08,50,18.10
2015,06,15,08,51,18.10
2015,06,15,08,52,18.10
2015,06,15,08,53,18.10
2015,06,15,08,54,18.10
2015,06,15,08,55,18.10
2015,06,15,08,56,18.10
2015,06,15,08,57,18.10
2015,06,15,08,58,18.20
2015,06,15,08,59,18.20
2015,06,15,09,00,18.20
2015,06,15,09,01,18.20
2015,06,15,09,02,18.30
2015,06,15,09,03,18.30
2015,06,15,09,04,18.40
2015,06,15,09,05,18.40
2015,06,15,09,06,18.40
2015,06,15,09,07,18.40
2015,06,15,09,08,18.50
2015,06,15,09,09,18.50
2015,06,15,09,10,18.50
2015,06,15,09,11,18.50
2015,06,15,09,12,18.50
2015,06,15,09,13,18.60
2015,06,15,09,14,18.60
2015,06,15,09,15,18.60
2015,06,15,09,16,18.70
2015,06,15,09,17,18.70
2015,06,15,09,18,18.70
2015,06,15,09,19,18.80
2015,06,15,09,20,18.80
2015,06,15,09,21,18.90
2015,06,15,09,22,18.90
2015,06,15,09,23,19.00
2015,06,15,09,24,19.00
2015,06,15,09,25,19.10
2015,06,15,09,26,19.20
2015,06,15,09,27,19.20
2015,06,15,09,28,19.20
2015,06,15,09,29,19.20
2015,06,15,09,30,19.20
2015,06,15,09,31,19.20
2015,06,15,09,32,19.20
2015,06,15,09,33,19.20
2015,06,15,09,34,19.20
2015,06,15,09,35,19.20
2015,06,15,09,36,19.20
2015,06,15,09,37,19.30
2015,06,15,09,38,19.30
2015,06,15,09,39,19.30
2015,06,15,09,40,19.20
2015,06,15,09,41,19.20
2015,06,15,09,42,19.20
2015,06,15,09,43,19.20
2015,06,15,09,44,19.20
2015,06,15,09,45,19.30
2015,06,15,09,46,19.30
2015,06,15,09,47,19.40
2015,06,15,09,48,19.40
2015,06,15,09,49,19.50
2015,06,15,09,50,19.50
2015,06,15,09,51,19.60
2015,06,15,09,52,19.60
2015,06,15,09,53,19.60
2015,06,15,09,54,19.60
2015,06,15,09,55,19.60
2015,06,15,09,56,19.70
2015,06,15,09,57,19.70
2015,06,15,09,58,19.70
2015,06,15,09,59,19.70
2015,06,15,10,00,19.70
2015,06,15,10,01,19.60
2015,06,15,10,02,19.60
2015,06,15,10,03,19.60
2015,06,15,10,04,19.60
2015,06,15,10,05,19.60
2015,06,15,10,06,19.60
2015,06,15,10,07,19.60
2015,06,15,10,08,19.70
2015,06,15,10,09,19.70
2015,06,15,10,10,19.80
2015,06,15,10,11,19.80
2015,06,15,10,12,19.90
2015,06,15,10,13,19.90
2015,06,15,10,14,19.80
2015,06,15,10,15,19.80
2015,06,15,10,16,19.80
2015,06,15,10,17,19.80
2015,06,15,10,18,19.80
2015,06,15,10,19,19.80
2015,06,15,10,20,19.80
2015,06,15,10,21,19.80
2015,06,15,10,22,19.80
2015,06,15,10,23,19.80
2015,06,15,10,24,19.70
2015,06,15,10,25,19.70
2015,06,15,10,26,19.70
2015,06,15,10,27,19.70
2015,06,15,10,28,19.80
2015,06,15,10,29,19.80
2015,06,15,10,30,19.80
2015,06,15,10,31,19.70
2015,06,15,10,32,19.60
2015,06,15,10,33,19.50
2015,06,15,10,34,19.50
2015,06,15,10,35,19.40
2015,06,15,10,36,19.30
2015,06,15,10,37,19.20
2015,06,15,10,38,19.10
2015,06,15,10,39,19.00
2015,06,15,10,40,19.00
2015,06,15,10,41,19.00
2015,06,15,10,42,19.10
2015,06,15,10,43,19.10
2015,06,15,10,44,19.20
2015,06,15,10,45,19.30
2015,06,15,10,46,19.30
2015,06,15,10,47,19.30
2015,06,15,10,48,19.40
2015,06,15,10,49,19.50
2015,06,15,10,50,19.60
2015,06,15,10,51,19.60
2015,06,15,10,52,19.60
2015,06,15,10,53,19.70
2015,06,15,10,54,19.70
2015,06,15,10,55,19.80
2015,06,15,10,56,19.90
2015,06,15,10,57,20.00
2015,06,15,10,58,20.10
2015,06,15,10,59,20.10
2015,06,15,11,00,20.10
2015,06,15,11,01,20.00
2015,06,15,11,02,19.90
2015,06,15,11,03,19.80
2015,06,15,11,04,19.80
2015,06,15,11,05,19.80
2015,06,15,11,06,19.80
2015,06,15,11,07,19.80
2015,06,15,11,08,19.80
2015,06,15,11,09,19.70
2015,06,15,11,10,19.70
2015,06,15,11,11,19.70
2015,06,15,11,12,19.70
2015,06,15,11,13,19.70
2015,06,15,11,14,19.70
2015,06,15,11,15,19.70
2015,06,15,11,16,19.70
2015,06,15,11,17,19.70
2015,06,15,11,18,19.70
2015,06,15,11,19,19.70
2015,06,15,11,20,19.70
2015,06,15,11,21,19.80
2015,06,15,11,22,19.80
2015,06,15,11,23,19.90
2015,06,15,11,24,20.00
2015,06,15,11,25,20.00
2015,06,15,11,26,20.10
2015,06,15,11,27,20.10
2015,06,15,11,28,20.10
2015,06,15,11,29,20.10
2015,06,15,11,30,20.10
2015,06,15,11,31,20.20
2015,06,15,11,32,20.40
2015,06,15,11,33,20.50
2015,06,15,11,34,20.60
2015,06,15,11,35,20.70
2015,06,15,11,36,20.70
2015,06,15,11,37,20.60
2015,06,15,11,38,20.60
2015,06,15,11,39,20.60
2015,06,15,11,40,20.60
2015,06,15,11,41,20.70
2015,06,15,11,42,20.70
2015,06,15,11,43,20.80
2015,06,15,11,44,20.90
2015,06,15,11,45,20.90
2015,06,15,11,46,21.00
2015,06,15,11,47,21.00
2015,06,15,11,48,21.00
2015,06,15,11,49,21.00
2015,06,15,11,50,21.00
2015,06,15,11,51,21.00
2015,06,15,11,52,21.00
2015,06,15,11,53,20.90
2015,06,15,11,54,20.90
2015,06,15,11,55,20.90
2015,06,15,11,56,20.80
2015,06,15,11,57,20.80
2015,06,15,11,58,20.80
2015,06,15,11,59,20.70
2015,06,15,12,00,20.70
2015,06,15,12,01,20.70
2015,06,15,12,02,20.70
2015,06,15,12,03,20.70
2015,06,15,12,04,20.80
2015,06,15,12,05,20.80
2015,06,15,12,06,20.90
2015,06,15,12,07,20.90
2015,06,15,12,08,20.90
2015,06,15,12,09,20.90
2015,06,15,12,10,20.90
2015,06,15,12,11,20.90
2015,06,15,12,12,20.80
2015,06,15,12,13,20.80
2015,06,15,12,14,20.80
2015,06,15,12,15,20.80
2015,06,15,12,16,20.80
2015,06,15,12,17,20.80
2015,06,15,12,18,20.80
2015,06,15,12,19,20.90
2015,06,15,12,20,20.90
2015,06,15,12,21,20.90
2015,06,15,12,22,20.90
2015,06,15,12,23,21.00
2015,06,15,12,24,21.10
2015,06,15,12,25,21.10
2015,06,15,12,26,21.20
2015,06,15,12,27,21.20
2015,06,15,12,28,21.30
2015,06,15,12,29,21.30
2015,06,15,12,30,21.30
2015,06,15,12,31,21.40
2015,06,15,12,32,21.40
2015,06,15,12,33,21.50
2015,06,15,12,34,21.60
2015,06,15,12,35,21.70
2015,06,15,12,36,21.80
2015,06,15,12,37,21.80
2015,06,15,12,38,21.90
2015,06,15,12,39,21.90
2015,06,15,12,40,22.10
2015,06,15,12,41,22.10
2015,06,15,12,42,22.20
2015,06,15,12,43,22.30
2015,06,15,12,44,22.30
2015,06,15,12,45,22.30
2015,06,15,12,46,22.30
2015,06,15,12,47,22.30
2015,06,15,12,48,22.30
2015,06,15,12,49,22.30
2015,06,15,12,50,22.30
2015,06,15,12,51,22.30
2015,06,15,12,52,22.40
2015,06,15,12,53,22.40
2015,06,15,12,54,22.40
2015,06,15,12,55,22.50
2015,06,15,12,56,22.60
2015,06,15,12,57,22.70
2015,06,15,12,58,22.70
2015,06,15,12,59,22.70
2015,06,15,13,00,22.80
2015,06,15,13,01,22.80
2015,06,15,13,02,22.80
2015,06,15,13,03,22.80
2015,06,15,13,04,22.80
2015,06,15,13,05,22.70
2015,06,15,13,06,22.70
2015,06,15,13,07,22.70
2015,06,15,13,08,22.70
2015,06,15,13,09,22.70
2015,06,15,13,10,22.70
2015,06,15,13,11,22.80
2015,06,15,13,12,22.80
2015,06,15,13,13,22.80
2015,06,15,13,14,22.90
2015,06,15,13,15,22.90
2015,06,15,13,16,22.90
2015,06,15,13,17,23.00
2015,06,15,13,18,23.10
2015,06,15,13,19,23.20
2015,06,15,13,20,23.30
2015,06,15,13,21,23.30
2015,06,15,13,22,23.40
2015,06,15,13,23,23.50
2015,06,15,13,24,23.70
2015,06,15,13,25,23.70
2015,06,15,13,26,23.80
2015,06,15,13,27,23.80
2015,06,15,13,28,23.90
2015,06,15,13,29,23.90
2015,06,15,13,30,23.80
2015,06,15,13,31,23.80
2015,06,15,13,32,23.70
2015,06,15,13,33,23.50
2015,06,15,13,34,23.40
2015,06,15,13,35,23.30
2015,06,15,13,36,23.30
2015,06,15,13,37,23.30
2015,06,15,13,38,23.30
2015,06,15,13,39,23.40
2015,06,15,13,40,23.40
2015,06,15,13,41,23.40
2015,06,15,13,42,23.40
2015,06,15,13,43,23.40
2015,06,15,13,44,23.40
2015,06,15,13,45,23.40
2015,06,15,13,46,23.50
2015,06,15,13,47,23.40
2015,06,15,13,48,23.40
2015,06,15,13,49,23.30
2015,06,15,13,50,23.30
2015,06,15,13,51,23.30
2015,06,15,13,52,23.30
2015,06,15,13,53,23.30
2015,06,15,13,54,23.30
2015,06,15,13,55,23.40
2015,06,15,13,56,23.60
2015,06,15,13,57,23.80
2015,06,15,13,58,23.80
2015,06,15,13,59,23.90
2015,06,15,14,00,24.00
2015,06,15,14,01,24.10
2015,06,15,14,02,24.10
2015,06,15,14,03,24.20
2015,06,15,14,04,24.20
2015,06,15,14,05,24.30
2015,06,15,14,06,24.40
2015,06,15,14,07,24.40
2015,06,15,14,08,24.50
2015,06,15,14,09,24.50
2015,06,15,14,10,24.60
2015,06,15,14,11,24.60
2015,06,15,14,12,24.60
2015,06,15,14,13,24.60
2015,06,15,14,14,24.60
2015,06,15,14,15,24.50
2015,06,15,14,16,24.50
2015,06,15,14,17,24.40
2015,06,15,14,18,24.40
2015,06,15,14,19,24.30
2015,06,15,14,20,24.30
2015,06,15,14,21,24.20
2015,06,15,14,22,24.10
2015,06,15,14,23,24.10
2015,06,15,14,24,24.10
2015,06,15,14,25,24.10
2015,06,15,14,26,24.10
2015,06,15,14,27,24.10
2015,06,15,14,28,24.10
2015,06,15,14,29,24.10
2015,06,15,14,30,24.10
2015,06,15,14,31,24.00
2015,06,15,14,32,24.00
2015,06,15,14,33,24.00
2015,06,15,14,34,24.10
2015,06,15,14,35,24.10
2015,06,15,14,36,24.10
2015,06,15,14,37,24.10
2015,06,15,14,38,24.10
2015,06,15,14,39,24.10
2015,06,15,14,40,24.10
2015,06,15,14,41,24.10
2015,06,15,14,42,24.10
2015,06,15,14,43,24.10
2015,06,15,14,44,24.10
2015,06,15,14,45,24.10
2015,06,15,14,46,24.10
2015,06,15,14,47,24.10
2015,06,15,14,48,24.10
2015,06,15,14,49,24.10
2015,06,15,14,50,24.20
2015,06,15,14,51,24.30
2015,06,15,14,52,24.30
2015,06,15,14,53,24.40
2015,06,15,14,54,24.50
2015,06,15,14,55,24.60
2015,06,15,14,56,24.60
2015,06,15,14,57,24.70
2015,06,15,14,58,24.70
2015,06,15,14,59,24.70
2015,06,15,15,00,24.80
2015,06,15,15,01,24.70
2015,06,15,15,02,24.70
2015,06,15,15,03,24.70
2015,06,15,15,04,24.70
2015,06,15,15,05,24.70
2015,06,15,15,06,24.70
2015,06,15,15,07,24.80
2015,06,15,15,08,24.80
2015,06,15,15,09,24.90
2015,06,15,15,10,24.90
2015,06,15,15,11,25.00
2015,06,15,15,12,25.00
2015,06,15,15,13,24.90
2015,06,15,15,14,24.90
2015,06,15,15,15,25.00
2015,06,15,15,16,25.10
2015,06,15,15,17,25.20
2015,06,15,15,18,25.40
2015,06,15,15,19,25.50
2015,06,15,15,20,25.50
2015,06,15,15,21,25.60
2015,06,15,15,22,25.70
2015,06,15,15,23,25.80
2015,06,15,15,24,25.90
2015,06,15,15,25,26.00
2015,06,15,15,26,26.20
2015,06,15,15,27,26.30
2015,06,15,15,28,26.40
2015,06,15,15,29,26.50
2015,06,15,15,30,26.70
2015,06,15,15,31,26.80
2015,06,15,15,32,26.80
2015,06,15,15,33,26.90
2015,06,15,15,34,26.90
2015,06,15,15,35,26.90
2015,06,15,15,36,27.00
2015,06,15,15,37,27.00
2015,06,15,15,38,27.10
2015,06,15,15,39,27.10
2015,06,15,15,40,27.10
2015,06,15,15,41,27.00
2015,06,15,15,42,26.90
2015,06,15,15,43,26.90
2015,06,15,15,44,26.80
2015,06,15,15,45,26.70
2015,06,15,15,46,26.70
2015,06,15,15,47,26.70
2015,06,15,15,48,26.60
2015,06,15,15,49,26.40
2015,06,15,15,50,26.30
2015,06,15,15,51,26.10
2015,06,15,15,52,26.00
2015,06,15,15,53,25.90
2015,06,15,15,54,25.80
2015,06,15,15,55,25.80
2015,06,15,15,56,25.80
2015,06,15,15,57,25.80
2015,06,15,15,58,25.80
2015,06,15,15,59,25.90
2015,06,15,16,00,26.00
2015,06,15,16,01,26.10
2015,06,15,16,02,26.00
2015,06,15,16,03,25.90
2015,06,15,16,04,25.80
2015,06,15,16,05,25.70
2015,06,15,16,06,25.60
2015,06,15,16,07,25.60
2015,06,15,16,08,25.60
2015,06,15,16,09,25.60
2015,06,15,16,10,25.60
2015,06,15,16,11,25.60
2015,06,15,16,12,25.60
2015,06,15,16,13,25.60
2015,06,15,16,14,25.60
2015,06,15,16,15,25.70
2015,06,15,16,16,25.60
2015,06,15,16,17,25.50
2015,06,15,16,18,25.40
2015,06,15,16,19,25.20
2015,06,15,16,20,25.20
2015,06,15,16,21,25.30
2015,06,15,16,22,25.30
2015,06,15,16,23,25.30
2015,06,15,16,24,25.40
2015,06,15,16,25,25.50
2015,06,15,16,26,25.60
2015,06,15,16,27,25.70
2015,06,15,16,28,25.80
2015,06,15,16,29,25.80
2015,06,15,16,30,25.80
2015,06,15,16,31,25.90
2015,06,15,16,32,25.90
2015,06,15,16,33,26.00
2015,06,15,16,34,26.10
2015,06,15,16,35,26.10
2015,06,15,16,36,26.10
2015,06,15,16,37,26.20
2015,06,15,16,38,26.20
2015,06,15,16,39,26.20
2015,06,15,16,40,26.30
2015,06,15,16,41,26.40
2015,06,15,16,42,26.50
2015,06,15,16,43,26.70
2015,06,15,16,44,26.80
2015,06,15,16,45,26.90
2015,06,15,16,46,27.00
2015,06,15,16,47,27.20
2015,06,15,16,48,27.30
2015,06,15,16,49,27.40
2015,06,15,16,50,27.50
2015,06,15,16,51,27.50
2015,06,15,16,52,27.50
2015,06,15,16,53,27.50
2015,06,15,16,54,27.60
2015,06,15,16,55,27.60
2015,06,15,16,56,27.70
2015,06,15,16,57,27.70
2015,06,15,16,58,27.70
2015,06,15,16,59,27.60
2015,06,15,17,00,27.60
2015,06,15,17,01,27.50
2015,06,15,17,02,27.40
2015,06,15,17,03,27.40
2015,06,15,17,04,27.30
2015,06,15,17,05,27.30
2015,06,15,17,06,27.40
2015,06,15,17,07,27.40
2015,06,15,17,08,27.30
2015,06,15,17,09,27.30
2015,06,15,17,10,27.30
2015,06,15,17,11,27.30
2015,06,15,17,12,27.30
2015,06,15,17,13,27.30
2015,06,15,17,14,27.30
2015,06,15,17,15,27.30
2015,06,15,17,16,27.30
2015,06,15,17,17,27.30
2015,06,15,17,18,27.40
2015,06,15,17,19,27.50